This is the latest recevied weather packets stored in our database for station/object KF0WJA. If no packets are shown the sender has not sent any weather packets the latest 10 day(s).
| Time | Temp. | Humidity | Pressure | Rain* | Wind** | Luminosity | Snow |
|---|---|---|---|---|---|---|---|
| 1787401886 | 23.33° C | 84% | 1019.6 hPa | 0 mm | - | 45 W/m² | - |
| 1787401582 | 22.78° C | 85% | 1019.5 hPa | 0 mm | - | 39 W/m² | - |
| 1787401277 | 22.78° C | 86% | 1019.5 hPa | 0 mm | - | 33 W/m² | - |
| 1787400973 | 22.22° C | 87% | 1019.7 hPa | 0 mm | - | 27 W/m² | - |
| 1787400668 | 22.22° C | 87% | 1019.5 hPa | 0 mm | - | 23 W/m² | - |
| 1787400363 | 22.22° C | 87% | 1019.5 hPa | 0 mm | - | 18 W/m² | - |
| 1787400063 | 22.22° C | 87% | 1019.4 hPa | 0 mm | - | 10 W/m² | - |
| 1787399760 | 22.22° C | 86% | 1019.6 hPa | 0 mm | - | 3 W/m² | - |
| 1787399456 | 22.22° C | 86% | 1019.5 hPa | 0 mm | - | 1 W/m² | - |
| 1787399155 | 22.22° C | 85% | 1019.3 hPa | 0 mm | - | 0 W/m² | - |
| 1787398850 | 22.22° C | 85% | 1019.5 hPa | 0 mm | - | 0 W/m² | - |
| 1787398546 | 22.22° C | 85% | 1019.3 hPa | 0 mm | - | 0 W/m² | - |
| 1787398242 | 22.78° C | 84% | 1019.3 hPa | 0 mm | - | 0 W/m² | - |
| 1787397937 | 22.78° C | 83% | 1019.5 hPa | 0 mm | - | 0 W/m² | - |
| 1787397632 | 22.78° C | 83% | 1019.1 hPa | 0 mm | - | 0 W/m² | - |
| 1787397332 | 22.78° C | 82% | 1018.6 hPa | 0 mm | - | 0 W/m² | - |
| 1787397031 | 22.78° C | 82% | 1018.6 hPa | 0 mm | - | 0 W/m² | - |
| 1787396727 | 23.33° C | 82% | 1018.4 hPa | 0 mm | - | 0 W/m² | - |
| 1787396423 | 23.33° C | 81% | 1018.2 hPa | 0 mm | - | 0 W/m² | - |
| 1787396122 | 23.33° C | 80% | 1017.8 hPa | 0 mm | - | 0 W/m² | - |
| 1787395818 | 23.89° C | 80% | 1017.9 hPa | 0 mm | - | 0 W/m² | - |
| 1787395513 | 24.44° C | 77% | 1017.5 hPa | 0 mm | - | 0 W/m² | - |
| 1787395207 | 24.44° C | 77% | 1017.7 hPa | 0 mm | - | 0 W/m² | - |
| 1787394902 | 23.89° C | 79% | 1017.6 hPa | 0 mm | - | 0 W/m² | - |
| 1787394598 | 23.33° C | 81% | 1017.5 hPa | 0 mm | - | 0 W/m² | - |
* Rain latest hour (hover to see other rain measurements)
** Current wind speed in m/s (hover to see current wind gust speed)